Dushanbe, Tajikistan

7:46 AM +05 on June 19, 2018 (GMT +0500)
Dushanbe

Weather History for UTDD - June, 2018

Change the Weather History Date:

Thursday, June 14, 2018

  Actual Average (WUND) Record (WUND)
Temperature  
Mean Temperature 76 °F -  
Max Temperature 91 °F - - (-1)
Min Temperature 60 °F - - (-1)
Cooling Degree Days 10    
Growing Degree Days 26 (Base 50)    
Moisture  
Dew Point 52 °F    
Average Humidity 39    
Maximum Humidity 60    
Minimum Humidity 14    
Precipitation  
Precipitation 0.00 in 0.01 in - ()
Sea Level Pressure  
Sea Level Pressure 29.71 in    
Wind  
Wind Speed 4 mph ()    
Max Wind Speed 13 mph    
Max Gust Speed -    
Visibility 5.8 miles    
Events Thunderstorm    
Averages and records for this station are not official NWS values.
T = Trace of Precipitation, MM = Missing Value Source: Averaged Metar Reports

Daily Weather History Graph

Daily Weather History Graph

Search for Another Location

Airport or City:

Astronomy

Jun. 14, 2018 Rise Set
Actual Time 5:00 AM +05 7:50 PM +05
Civil Twilight 4:28 AM +05 8:22 PM +05
Nautical Twilight 3:48 AM +05 9:02 PM +05
Astronomical Twilight 3:02 AM +05 9:47 PM +05
Moon 5:31 AM +05 (6/14) 8:23 PM +05 (6/14)
Length of Visible Light 15h 53m
Length of Day
14h 50m
New Moon, 0% of the Moon is Illuminated
Jun 14
New Moon
Jun 20
First Quarter
Jun 28
Full
Jul 6
Last Quarter
Jul 13
New

Hourly Weather History & Observations

Time (+05) Temp. Heat Index Dew Point Humidity Pressure Visibility Wind Dir Wind Speed Gust Speed Precip Events Conditions
12:00 AM 71.6 °F - 51.8 °F 50% 29.71 in 6.2 mi East 4.5 mph - N/A   Unknown
12:30 AM 71.6 °F - 51.8 °F 50% 29.71 in 6.2 mi East 4.5 mph - N/A   Unknown
1:00 AM 71.6 °F - 53.6 °F 53% 29.71 in 6.2 mi NNE 4.5 mph - N/A   Unknown
1:30 AM 71.6 °F - 51.8 °F 50% 29.71 in 6.2 mi East 2.2 mph - N/A   Unknown
2:00 AM 65 °F - 53 °F 57% 29.69 in - Calm Calm - -  
2:00 AM 71.6 °F - 51.8 °F 50% 29.71 in 6.2 mi Variable 2.2 mph - N/A   Unknown
2:30 AM 68.0 °F - 51.8 °F 56% 29.71 in 6.2 mi East 4.5 mph - N/A   Unknown
3:00 AM 68.0 °F - 53.6 °F 60% 29.71 in 6.2 mi Variable 2.2 mph - N/A   Unknown
3:30 AM 68.0 °F - 51.8 °F 56% 29.71 in 6.2 mi East 4.5 mph - N/A   Unknown
4:00 AM 68.0 °F - 51.8 °F 56% 29.71 in 6.2 mi ENE 4.5 mph - N/A   Unknown
4:30 AM 69.8 °F - 51.8 °F 53% 29.71 in 6.2 mi Variable 2.2 mph - N/A   Unknown
5:00 AM 61 °F - 51 °F 60% 29.76 in 12 mi Calm Calm - -  
5:00 AM 69.8 °F - 51.8 °F 53% 29.71 in 6.2 mi ENE 4.5 mph - N/A   Unknown
5:30 AM 68.0 °F - 53.6 °F 60% 29.71 in 6.2 mi ESE 4.5 mph - N/A   Unknown
6:00 AM 69.8 °F - 53.6 °F 56% 29.71 in 6.2 mi ENE 4.5 mph - N/A   Unknown
6:30 AM 71.6 °F - 53.6 °F 53% 29.71 in 6.2 mi NE 6.7 mph - N/A   Unknown
7:00 AM 75.2 °F - 55.4 °F 50% 29.71 in 6.2 mi Variable 4.5 mph - N/A   Unknown
7:30 AM 75.2 °F - 57.2 °F 53% 29.74 in 6.2 mi Variable 2.2 mph - N/A   Unknown
8:00 AM 78 °F - 53 °F 30% 29.65 in 31 mi Calm Calm - -   Scattered Clouds
8:00 AM 78.8 °F - 57.2 °F 47% 29.74 in 6.2 mi Variable 2.2 mph - N/A   Unknown
8:30 AM 80.6 °F 80.8 °F 57.2 °F 45% 29.74 in 6.2 mi Variable 4.5 mph - N/A   Unknown
9:00 AM 80.6 °F 80.5 °F 55.4 °F 42% 29.74 in 6.2 mi Variable 4.5 mph - N/A   Unknown
9:30 AM 84.2 °F 82.8 °F 53.6 °F 35% 29.74 in 6.2 mi East 6.7 mph - N/A   Unknown
10:00 AM 86.0 °F 84.5 °F 55.4 °F 35% 29.74 in 6.2 mi ESE 6.7 mph - N/A   Partly Cloudy
10:30 AM 89.6 °F - 50.0 °F 26% 29.74 in 6.2 mi Variable 4.5 mph - N/A   Partly Cloudy
11:00 AM 90 °F - 51 °F 17% 29.62 in 31 mi Calm Calm - -   Clear
11:00 AM 89.6 °F - 48.2 °F 24% 29.74 in 6.2 mi South 6.7 mph - N/A   Partly Cloudy
12:00 PM 91.4 °F - 51.8 °F 26% 29.74 in 6.2 mi Variable 6.7 mph - N/A   Partly Cloudy
12:30 PM 91.4 °F 89.1 °F 53.6 °F 28% 29.74 in 6.2 mi WSW 8.9 mph - N/A   Partly Cloudy
1:00 PM 91.4 °F - 51.8 °F 26% 29.74 in 6.2 mi Variable 4.5 mph - N/A   Partly Cloudy
1:30 PM 91.4 °F - 50.0 °F 24% 29.71 in 5.6 mi WSW 6.7 mph - N/A   Partly Cloudy
2:00 PM 91 °F - 49 °F 14% 29.60 in 31 mi West 11.2 mph - -   Scattered Clouds
2:00 PM 91.4 °F - 51.8 °F 26% 29.71 in 2.8 mi West 11.2 mph - N/A   Haze
2:30 PM 89.6 °F - 51.8 °F 27% 29.71 in - West 11.2 mph - N/A   Haze
3:00 PM 89.6 °F - 51.8 °F 27% 29.71 in - West 13.4 mph - N/A   Haze
3:30 PM 89.6 °F - 51.8 °F 27% 29.71 in - West 11.2 mph - N/A   Haze
4:00 PM 89.6 °F - 51.8 °F 27% 29.71 in - West 8.9 mph - N/A   Haze
4:30 PM 89.6 °F - 48.2 °F 24% 29.71 in - WSW 8.9 mph - N/A   Haze
5:00 PM 89 °F - 50 °F 17% 29.62 in 31 mi Calm Calm - -   Mostly Cloudy
5:00 PM 89.6 °F - 48.2 °F 24% 29.71 in 2.8 mi West 6.7 mph - N/A   Haze
5:30 PM 89.6 °F - 48.2 °F 24% 29.68 in 3.7 mi WSW 6.7 mph - N/A Thunderstorm Mostly Cloudy
6:00 PM 86.0 °F - 51.8 °F 31% 29.71 in - SSW 8.9 mph - N/A   Haze
6:30 PM 84.2 °F - 46.4 °F 27% 29.71 in 5.0 mi Variable 4.5 mph - N/A   Mostly Cloudy
7:00 PM 84.2 °F - 48.2 °F 29% 29.71 in 4.3 mi WSW 6.7 mph - N/A   Scattered Clouds
7:30 PM 82.4 °F - 51.8 °F 35% 29.71 in 3.1 mi WSW 4.5 mph - N/A   Haze
8:00 PM 84 °F - 56 °F 28% 29.70 in 12 mi Calm Calm - -  
8:00 PM 80.6 °F - 50.0 °F 34% 29.71 in - Variable 2.2 mph - N/A   Haze
8:30 PM 80.6 °F - 48.2 °F 32% 29.71 in 3.7 mi Variable 2.2 mph - N/A   Scattered Clouds
9:00 PM 80.6 °F - 50.0 °F 34% 29.71 in 4.3 mi Variable 2.2 mph - N/A   Scattered Clouds
9:30 PM 77.0 °F - 53.6 °F 44% 29.71 in 4.3 mi East 6.7 mph - N/A   Scattered Clouds
10:00 PM 77.0 °F - 51.8 °F 41% 29.71 in 4.3 mi ENE 6.7 mph - N/A   Scattered Clouds
10:30 PM 75.2 °F - 53.6 °F 47% 29.71 in 5.0 mi East 6.7 mph - N/A   Partly Cloudy
11:00 PM 75.2 °F - 55.4 °F 50% 29.71 in 5.0 mi Variable 4.5 mph - N/A Thunderstorm Partly Cloudy
11:30 PM 73.4 °F - 53.6 °F 50% 29.71 in 5.0 mi Variable 4.5 mph - N/A   Partly Cloudy